Time,TemperatureF,DewpointF,PressureIn,WindDirection,WindDirectionDegrees,WindSpeedMPH,WindSpeedGustMPH,Humidity,HourlyPrecipIn,Conditions,Clouds,dailyrainin,SolarRadiationWatts/m^2,SoftwareType,DateUTC
2014-02-28 00:52:00,30.0,29.0,-100.00,NNW,345,12.0,19.0,95,-99.99,,,0.00,0.000000,,2014-02-28 07:52:00,
2014-02-28 01:02:00,30.0,29.0,-100.00,NNW,345,12.0,19.0,95,-99.99,,,0.00,0.000000,,2014-02-28 08:02:00,
2014-02-28 01:11:00,30.0,29.0,-100.00,NNW,345,12.0,19.0,95,-99.99,,,0.00,0.000000,,2014-02-28 08:11:00,
2014-02-28 01:52:00,26.0,24.0,-100.00,NE,41,7.0,22.0,91,0.00,,,0.00,0.000000,,2014-02-28 08:52:00,
2014-02-28 02:02:00,26.0,24.0,-100.00,NE,41,7.0,22.0,91,0.00,,,0.00,0.000000,,2014-02-28 09:02:00,
2014-02-28 02:12:00,26.0,24.0,-100.00,NE,41,7.0,22.0,91,0.00,,,0.00,0.000000,,2014-02-28 09:12:00,
2014-02-28 02:21:00,26.0,24.0,-100.00,NE,41,7.0,22.0,91,0.00,,,0.00,0.000000,,2014-02-28 09:21:00,
2014-02-28 02:22:00,22.0,20.0,-100.00,North,3,5.0,20.0,90,0.00,,,0.00,0.000000,,2014-02-28 09:22:00,
2014-02-28 02:53:00,22.0,20.0,-100.00,North,3,5.0,20.0,90,0.00,,,0.00,0.000000,,2014-02-28 09:53:00,
2014-02-28 03:03:00,22.0,20.0,-100.00,North,3,5.0,20.0,90,0.00,,,0.00,0.000000,,2014-02-28 10:03:00,
2014-02-28 03:13:00,22.0,20.0,-100.00,North,3,5.0,20.0,90,0.00,,,0.00,0.000000,,2014-02-28 10:13:00,
2014-02-28 03:22:00,19.0,16.0,-100.00,East,90,3.0,11.0,88,0.00,,,0.00,0.000000,,2014-02-28 10:22:00,
2014-02-28 03:53:00,19.0,16.0,-100.00,East,90,3.0,11.0,88,0.00,,,0.00,0.000000,,2014-02-28 10:53:00,
2014-02-28 04:03:00,19.0,16.0,-100.00,East,90,3.0,11.0,88,0.00,,,0.00,0.000000,,2014-02-28 11:03:00,
2014-02-28 04:12:00,19.0,16.0,-100.00,East,90,3.0,11.0,88,0.00,,,0.00,0.000000,,2014-02-28 11:12:00,
2014-02-28 04:22:00,16.0,13.0,-100.00,SE,129,4.0,10.0,87,0.00,,,0.00,0.000000,,2014-02-28 11:22:00,
2014-02-28 04:52:00,16.0,13.0,-100.00,SE,129,4.0,10.0,87,0.00,,,0.00,0.000000,,2014-02-28 11:52:00,
2014-02-28 05:02:00,16.0,13.0,-100.00,SE,129,4.0,10.0,87,0.00,,,0.00,0.000000,,2014-02-28 12:02:00,
2014-02-28 05:11:00,16.0,13.0,-100.00,SE,129,4.0,10.0,87,0.00,,,0.00,0.000000,,2014-02-28 12:11:00,
2014-02-28 05:52:00,14.0,11.0,-100.00,ESE,121,3.0,7.0,87,0.00,,,0.00,0.000000,,2014-02-28 12:52:00,
2014-02-28 06:02:00,14.0,11.0,-100.00,ESE,121,3.0,7.0,87,0.00,,,0.00,0.000000,,2014-02-28 13:02:00,
2014-02-28 06:11:00,14.0,11.0,-100.00,ESE,121,3.0,7.0,87,0.00,,,0.00,0.000000,,2014-02-28 13:11:00,
2014-02-28 06:21:00,14.0,11.0,-100.00,ESE,121,3.0,7.0,87,0.00,,,0.00,0.000000,,2014-02-28 13:21:00,
2014-02-28 06:52:00,13.0,10.0,-100.00,ENE,59,6.0,7.0,86,0.00,,,0.00,0.000000,,2014-02-28 13:52:00,
2014-02-28 07:02:00,13.0,10.0,-100.00,ENE,59,6.0,7.0,86,0.00,,,0.00,0.000000,,2014-02-28 14:02:00,
2014-02-28 07:11:00,13.0,10.0,-100.00,ENE,59,6.0,7.0,86,0.00,,,0.00,0.000000,,2014-02-28 14:11:00,
2014-02-28 07:21:00,13.0,10.0,-100.00,ENE,59,6.0,7.0,86,0.00,,,0.00,0.000000,,2014-02-28 14:21:00,
2014-02-28 07:52:00,12.0,8.0,-100.00,East,88,5.0,9.0,84,0.00,,,0.00,0.000000,,2014-02-28 14:52:00,
2014-02-28 08:02:00,12.0,8.0,-100.00,East,88,5.0,9.0,84,0.00,,,0.00,0.000000,,2014-02-28 15:02:00,
2014-02-28 08:12:00,12.0,8.0,-100.00,East,88,5.0,9.0,84,0.00,,,0.00,0.000000,,2014-02-28 15:12:00,
2014-02-28 08:21:00,12.0,8.0,-100.00,East,88,5.0,9.0,84,0.00,,,0.00,0.000000,,2014-02-28 15:21:00,
2014-02-28 08:22:00,9.0,5.0,-100.00,NE,35,2.0,11.0,85,0.00,,,0.00,5.000000,,2014-02-28 15:22:00,
2014-02-28 08:54:00,9.0,5.0,-100.00,NE,35,2.0,11.0,85,0.00,,,0.00,5.000000,,2014-02-28 15:54:00,
2014-02-28 09:03:00,9.0,5.0,-100.00,NE,35,2.0,11.0,85,0.00,,,0.00,5.000000,,2014-02-28 16:03:00,
2014-02-28 09:13:00,9.0,5.0,-100.00,NE,35,2.0,11.0,85,0.00,,,0.00,5.000000,,2014-02-28 16:13:00,
2014-02-28 09:22:00,11.0,7.0,-100.00,NE,39,5.0,8.0,83,0.00,,,0.00,108.000000,,2014-02-28 16:22:00,
2014-02-28 09:53:00,11.0,7.0,-100.00,NE,39,5.0,8.0,83,0.00,,,0.00,108.000000,,2014-02-28 16:53:00,
2014-02-28 10:02:00,11.0,7.0,-100.00,NE,39,5.0,8.0,83,0.00,,,0.00,108.000000,,2014-02-28 17:02:00,
2014-02-28 10:12:00,11.0,7.0,-100.00,NE,39,5.0,8.0,83,0.00,,,0.00,108.000000,,2014-02-28 17:12:00,
2014-02-28 10:52:00,12.0,7.0,-100.00,North,10,6.0,9.0,81,0.00,,,0.00,194.000000,,2014-02-28 17:52:00,
2014-02-28 11:02:00,12.0,7.0,-100.00,North,10,6.0,9.0,81,0.00,,,0.00,194.000000,,2014-02-28 18:02:00,
2014-02-28 11:12:00,12.0,7.0,-100.00,North,10,6.0,9.0,81,0.00,,,0.00,194.000000,,2014-02-28 18:12:00,
2014-02-28 11:21:00,12.0,7.0,-100.00,North,10,6.0,9.0,81,0.00,,,0.00,194.000000,,2014-02-28 18:21:00,
2014-02-28 11:52:00,10.0,5.0,-100.00,North,358,5.0,10.0,79,0.00,,,0.00,333.000000,,2014-02-28 18:52:00,
2014-02-28 12:01:00,10.0,5.0,-100.00,North,358,5.0,10.0,79,0.00,,,0.00,333.000000,,2014-02-28 19:01:00,
2014-02-28 12:11:00,10.0,5.0,-100.00,North,358,5.0,10.0,79,0.00,,,0.00,333.000000,,2014-02-28 19:11:00,
2014-02-28 12:21:00,10.0,5.0,-100.00,North,358,5.0,10.0,79,0.00,,,0.00,333.000000,,2014-02-28 19:21:00,
2014-02-28 12:52:00,14.0,8.0,-100.00,ENE,73,10.0,10.0,77,0.00,,,0.00,634.000000,,2014-02-28 19:52:00,
2014-02-28 13:01:00,14.0,8.0,-100.00,ENE,73,10.0,10.0,77,0.00,,,0.00,634.000000,,2014-02-28 20:01:00,
2014-02-28 13:12:00,14.0,8.0,-100.00,ENE,73,10.0,10.0,77,0.00,,,0.00,634.000000,,2014-02-28 20:12:00,
2014-02-28 13:21:00,14.0,8.0,-100.00,ENE,73,10.0,10.0,77,0.00,,,0.00,634.000000,,2014-02-28 20:21:00,
2014-02-28 13:52:00,11.0,5.0,-100.00,East,96,9.0,12.0,77,0.00,,,0.00,728.000000,,2014-02-28 20:52:00,
2014-02-28 14:02:00,11.0,5.0,-100.00,East,96,9.0,12.0,77,0.00,,,0.00,728.000000,,2014-02-28 21:02:00,
2014-02-28 14:12:00,11.0,5.0,-100.00,East,96,9.0,12.0,77,0.00,,,0.00,728.000000,,2014-02-28 21:12:00,
2014-02-28 14:21:00,11.0,5.0,-100.00,East,96,9.0,12.0,77,0.00,,,0.00,728.000000,,2014-02-28 21:21:00,
2014-02-28 14:22:00,9.0,3.0,-100.00,East,91,9.0,14.0,76,0.00,,,0.00,723.000000,,2014-02-28 21:22:00,
2014-02-28 14:53:00,9.0,3.0,-100.00,East,91,9.0,14.0,76,0.00,,,0.00,723.000000,,2014-02-28 21:53:00,
2014-02-28 15:03:00,9.0,3.0,-100.00,East,91,9.0,14.0,76,0.00,,,0.00,723.000000,,2014-02-28 22:03:00,
2014-02-28 15:12:00,9.0,3.0,-100.00,East,91,9.0,14.0,76,0.00,,,0.00,723.000000,,2014-02-28 22:12:00,
2014-02-28 15:53:00,9.0,2.0,-100.00,ENE,59,5.0,13.0,74,0.00,,,0.00,639.000000,,2014-02-28 22:53:00,
2014-02-28 16:02:00,9.0,2.0,-100.00,ENE,59,5.0,13.0,74,0.00,,,0.00,639.000000,,2014-02-28 23:02:00,
2014-02-28 16:12:00,9.0,2.0,-100.00,ENE,59,5.0,13.0,74,0.00,,,0.00,639.000000,,2014-02-28 23:12:00,
2014-02-28 16:21:00,9.0,2.0,-100.00,ENE,59,5.0,13.0,74,0.00,,,0.00,639.000000,,2014-02-28 23:21:00,
2014-02-28 17:22:00,6.0,1.0,-100.00,East,88,10.0,11.0,80,0.00,,,0.00,357.000000,,2014-03-01 00:22:00,
2014-02-28 17:52:00,6.0,1.0,-100.00,East,88,10.0,11.0,80,0.00,,,0.00,357.000000,,2014-03-01 00:52:00,
2014-02-28 18:01:00,6.0,1.0,-100.00,East,88,10.0,11.0,80,0.00,,,0.00,357.000000,,2014-03-01 01:01:00,
2014-02-28 18:11:00,6.0,1.0,-100.00,East,88,10.0,11.0,80,0.00,,,0.00,357.000000,,2014-03-01 01:11:00,
2014-02-28 18:22:00,3.0,-1.0,-100.00,East,94,10.0,13.0,81,0.00,,,0.00,129.000000,,2014-03-01 01:22:00,
2014-02-28 18:52:00,3.0,-1.0,-100.00,East,94,10.0,13.0,81,0.00,,,0.00,129.000000,,2014-03-01 01:52:00,
2014-02-28 19:02:00,3.0,-1.0,-100.00,East,94,10.0,13.0,81,0.00,,,0.00,129.000000,,2014-03-01 02:02:00,
2014-02-28 19:11:00,3.0,-1.0,-100.00,East,94,10.0,13.0,81,0.00,,,0.00,129.000000,,2014-03-01 02:11:00,
2014-02-28 19:52:00,1.0,-4.0,-100.00,East,85,11.0,13.0,80,0.00,,,0.00,18.000000,,2014-03-01 02:52:00,
2014-02-28 20:02:00,1.0,-4.0,-100.00,East,85,11.0,13.0,80,0.00,,,0.00,18.000000,,2014-03-01 03:02:00,
2014-02-28 20:11:00,1.0,-4.0,-100.00,East,85,11.0,13.0,80,0.00,,,0.00,18.000000,,2014-03-01 03:11:00,
2014-02-28 20:21:00,1.0,-4.0,-100.00,East,85,11.0,13.0,80,0.00,,,0.00,18.000000,,2014-03-01 03:21:00,
2014-02-28 20:22:00,0.0,-5.0,-100.00,East,87,6.0,14.0,80,0.00,,,0.00,0.000000,,2014-03-01 03:22:00,
2014-02-28 20:53:00,0.0,-5.0,-100.00,East,87,6.0,14.0,80,0.00,,,0.00,0.000000,,2014-03-01 03:53:00,
2014-02-28 21:04:00,0.0,-5.0,-100.00,East,87,6.0,14.0,80,0.00,,,0.00,0.000000,,2014-03-01 04:04:00,
2014-02-28 21:13:00,0.0,-5.0,-100.00,East,87,6.0,14.0,80,0.00,,,0.00,0.000000,,2014-03-01 04:13:00,
2014-02-28 21:22:00,-1.0,-6.0,-100.00,ESE,107,8.0,15.0,80,0.00,,,0.00,0.000000,,2014-03-01 04:22:00,
2014-02-28 21:52:00,-1.0,-6.0,-100.00,ESE,107,8.0,15.0,80,0.00,,,0.00,0.000000,,2014-03-01 04:52:00,
2014-02-28 22:02:00,-1.0,-6.0,-100.00,ESE,107,8.0,15.0,80,0.00,,,0.00,0.000000,,2014-03-01 05:02:00,
2014-02-28 22:12:00,-1.0,-6.0,-100.00,ESE,107,8.0,15.0,80,0.00,,,0.00,0.000000,,2014-03-01 05:12:00,
2014-02-28 22:22:00,-2.0,-7.0,-100.00,ENE,63,4.0,13.0,79,0.00,,,0.00,0.000000,,2014-03-01 05:22:00,
2014-02-28 22:53:00,-2.0,-7.0,-100.00,ENE,63,4.0,13.0,79,0.00,,,0.00,0.000000,,2014-03-01 05:53:00,
2014-02-28 23:02:00,-2.0,-7.0,-100.00,ENE,63,4.0,13.0,79,0.00,,,0.00,0.000000,,2014-03-01 06:02:00,
2014-02-28 23:11:00,-2.0,-7.0,-100.00,ENE,63,4.0,13.0,79,0.00,,,0.00,0.000000,,2014-03-01 06:11:00,
2014-02-28 23:52:00,-2.0,-7.0,-100.00,East,79,8.0,9.0,79,0.00,,,0.00,0.000000,,2014-03-01 06:52:00,